Simultaneous Nadir Overpasses (SNOs) Predictions

Prediction of SNOs between AQUA and NOAA-19 Satellite Orbit:

Table of predicted SNOs for the next 14.0 days since TLE Epoch: 3/23/2018
Index Date (AQUA) Time (AQUA) Lat,Lon (AQUA) SZA (AQUA ) Date (NOAA-19) Time (NOAA-19) Lat,Lon (NOAA-19) SZA (NOAA-19 ) Distance(km) Time Diff (sec)
1 03/24/2018 00:01:07 80.84, 140.88 81.70 03/24/2018 00:00:18 80.85, 140.85 81.73 0.61 49
2 03/24/2018 00:50:34 -80.85, -51.53 98.31 03/24/2018 00:51:13 -80.85, -51.59 98.32 1.20 39
3 03/26/2018 05:34:51 -80.84,-122.46 99.21 03/26/2018 05:33:51 -80.85,-122.30 99.19 3.34 60
4 03/26/2018 06:24:18 80.86, 44.90 80.82 03/26/2018 06:24:57 80.85, 44.80 80.81 2.19 39
5 03/28/2018 11:08:35 80.85, -26.06 79.93 03/28/2018 11:07:35 80.84, -25.89 79.94 3.10 60
6 03/28/2018 11:58:02 -80.85, 141.53 100.08 03/28/2018 11:58:30 -80.85, 141.56 100.10 0.66 28
7 03/30/2018 16:42:19 -80.85, 70.54 100.96 03/30/2018 16:41:09 -80.84, 70.45 100.92 1.86 70
8 03/30/2018 17:31:45 80.84,-121.75 79.02 03/30/2018 17:32:13 80.85,-121.66 79.01 1.99 28
9 04/01/2018 22:16:02 80.84, 167.24 78.15 04/01/2018 22:14:52 80.84, 167.20 78.19 0.83 70
10 04/01/2018 23:05:29 -80.84, -25.17 101.86 04/01/2018 23:05:47 -80.84, -25.36 101.85 3.36 18
11 04/04/2018 04:39:12 80.83, 71.50 77.26 04/04/2018 04:39:30 80.84, 71.35 77.28 3.15 18




NCC Satellite Simultaneous Nadir Overpasses (SNOs) Prediction Service
